Regional Weather Roundup
Issued by NWS

Home | Current Version | Previous Version | Graphics & Text | Print | Product List | Glossary On
Versions: 1 2 3 4 5 6 7 8 9 10 11 12 13 14 15 16 17 18 19 20 21 22 23 24 25 26 27 28 29 30 31 32 33 34 35 36 37 38 39 40 41 42 43 44 45 46 47 48 49 50
000
ASUS43 KLSX 202207
RWRMO

WEATHER SUMMARY FOR MISSOURI
NATIONAL WEATHER SERVICE SPRINGFIELD MO
400 PM CST SAT JAN 20 2018

NOTE: "FAIR" INDICATES FEW OR NO CLOUDS BELOW 12,000 FEET WITH NO
       SIGNIFICANT WEATHER AND/OR OBSTRUCTIONS TO VISIBILITY.
       CURRENT SKY AND/OR WEATHER CONDITIONS ARE NOT AVAILABLE FOR
       CHILLICOTHE AND FARMINGTON.

MOZ001>031-035>038-043-044-053-054-202300-
...NORTHERN AND WESTERN MISSOURI...

CITY           SKY/WX    TMP DP  RH WIND       PRES   REMARKS
KANSAS CTY INT CLOUDY    51  44  77 SE6       29.84S
KANSAS C DTWN  CLOUDY    54  44  69 SE3       29.84S
LEE`S SUMMIT   CLOUDY    52  46  80 S7        29.85R
ST JOSEPH      CLOUDY    49  44  83 S6        29.84R
CHILLICOTHE      N/A     51  43  74 SE6       29.88R
KIRKSVILLE     CLOUDY    51  44  77 SW8       29.89R

$$
MOZ066>068-077>081-088>096-101>105-202300-
...SOUTHWEST MISSOURI...

CITY           SKY/WX    TMP DP  RH WIND       PRES   REMARKS
SPRINGFIELD    SUNNY     63  44  50 S16       29.85S
JOPLIN         SUNNY     64  47  53 S17G24    29.83S
BRANSON        MOSUNNY   63  45  51 SE14      29.92S

$$
MOZ032>034-039>042-045>050-055>058-069>072-202300-
...CENTRAL MISSOURI...

CITY           SKY/WX    TMP DP  RH WIND       PRES   REMARKS
COLUMBIA       PTSUNNY   54  44  69 E5        29.90S
JEFFERSON CITY MOSUNNY   59  44  57 SE6       29.90S
ROLLA          SUNNY     57  44  62 S13G23    29.92R
SEDALIA        SUNNY     59  47  64 S5        29.87F
WHITEMAN AFB   MOSUNNY   56  46  67 S6        29.82F
WARRENSBURG    MOSUNNY   54  45  71 S6        29.85F
OSAGE BEACH    SUNNY     61  45  55 SE9       29.90R

$$
MOZ051-052-059>065-202300-
...EAST CENTRAL MISSOURI...

CITY           SKY/WX    TMP DP  RH WIND       PRES   REMARKS
ST LOUIS INTL  PTSUNNY   58  43  57 E8        29.94S
SPIRIT OF STL  SUNNY     61  45  55 CALM      29.93S
ST CHARLES     CLOUDY    53  40  61 E7        29.95R

$$
MOZ072>076-082>087-097>100-106>115-202300-
...SOUTH CENTRAL AND SOUTHEAST MISSOURI...

CITY           SKY/WX    TMP DP  RH WIND       PRES   REMARKS
CAPE GIRARDEAU CLOUDY    43  37  79 S12       30.05S
FARMINGTON     FAIR      57  41  55 S13       29.97R
POPLAR BLUFF   PTSUNNY   47  40  76 S9        30.04S
WEST PLAINS    SUNNY     59  45  59 S14G26    29.97R

$$



USA.gov is the U.S. government's official web portal to all federal, state and local government web resources and services.